| time (UTC) | temp F | wind direction | speed MPH | gust MPH | rain 1hr in | rain 24hr in | rain mn in | humidity % | barometer mb |
| 20260506070414 | 65 | 151 | 0.0 | 4.0 | 0.00 | 0.00 | 0.00 | 74 | 1009.4 |
| 20260506062414 | 66 | 227 | 1.0 | 4.0 | 0.00 | 0.00 | 0.00 | 71 | 1009.5 |
| 20260506061915 | 66 | 55 | 0.0 | 4.0 | 0.00 | 0.00 | 0.00 | 71 | 1009.5 |
| 20260506061643 | 66 | 55 | 1.0 | 4.0 | 0.00 | 0.00 | 0.00 | 70 | 1009.5 |
| 20260506060914 | 66 | 225 | 1.0 | 3.0 | 0.00 | 0.00 | 0.00 | 70 | 1009.5 |
| 20260506060414 | 66 | 96 | 1.0 | 6.0 | 0.00 | 0.00 | 0.00 | 70 | 1009.5 |
| 20260506051401 | 67 | 53 | 2.0 | 6.0 | 0.00 | 0.00 | 0.00 | 67 | 1010.0 |
| 20260506050904 | 67 | 207 | 1.0 | 6.0 | 0.00 | 0.00 | 0.00 | 67 | 1010.0 |
| 20260506050604 | 67 | 109 | 1.0 | 6.0 | 0.00 | 0.00 | 0.00 | 67 | 1010.1 |
| 20260506050458 | 67 | 92 | 1.0 | 6.0 | 0.00 | 0.00 | 0.00 | 67 | 1010.0 |
| 20260506044858 | 67 | 208 | 1.0 | 5.0 | 0.00 | 0.00 | 0.00 | 66 | 1010.1 |
| 20260506044354 | 67 | 152 | 2.0 | 9.0 | 0.00 | 0.00 | 0.00 | 66 | 1010.1 |
| 20260506043855 | 67 | 213 | 2.0 | 9.0 | 0.00 | 0.00 | 0.00 | 66 | 1010.1 |
| 20260506043355 | 67 | 117 | 2.0 | 7.0 | 0.00 | 0.00 | 0.00 | 66 | 1009.9 |
| 20260506042855 | 67 | 83 | 1.0 | 7.0 | 0.00 | 0.00 | 0.00 | 65 | 1010.0 |
| 20260506042356 | 67 | 263 | 1.0 | 5.0 | 0.00 | 0.00 | 0.00 | 65 | 1010.1 |
| 20260506041853 | 67 | 77 | 1.0 | 5.0 | 0.00 | 0.00 | 0.00 | 65 | 1010.0 |
| 20260506041351 | 67 | 221 | 1.0 | 4.0 | 0.00 | 0.00 | 0.00 | 65 | 1010.0 |
| 20260506040901 | 67 | 121 | 1.0 | 3.0 | 0.00 | 0.00 | 0.00 | 65 | 1010.0 |
| 20260506040346 | 68 | 71 | 1.0 | 6.0 | 0.00 | 0.00 | 0.00 | 65 | 1010.0 |
| 20260506035846 | 68 | 196 | 1.0 | 6.0 | 0.00 | 0.00 | 0.00 | 65 | 1009.9 |
| 20260506035347 | 68 | 5 | 1.0 | 5.0 | 0.00 | 0.00 | 0.00 | 65 | 1009.9 |
| 20260506035108 | 68 | 68 | 1.0 | 5.0 | 0.00 | 0.00 | 0.00 | 65 | 1009.9 |
| 20260506034346 | 68 | 242 | 1.0 | 9.0 | 0.00 | 0.00 | 0.00 | 64 | 1009.8 |
| 20260506033846 | 68 | 92 | 1.0 | 9.0 | 0.00 | 0.00 | 0.00 | 64 | 1010.0 |
| 20260506033345 | 68 | 113 | 1.0 | 9.0 | 0.00 | 0.00 | 0.00 | 63 | 1010.0 |
| 20260506032845 | 69 | 204 | 1.0 | 9.0 | 0.00 | 0.00 | 0.00 | 63 | 1009.9 |
| 20260506032344 | 69 | 204 | 1.0 | 4.0 | 0.00 | 0.00 | 0.00 | 62 | 1009.9 |
| 20260506031845 | 69 | 73 | 1.0 | 4.0 | 0.00 | 0.00 | 0.00 | 62 | 1009.9 |
| 20260506031608 | 69 | 56 | 1.0 | 4.0 | 0.00 | 0.00 | 0.00 | 61 | 1010.0 |
| 20260506031107 | 70 | 39 | 1.0 | 6.0 | 0.00 | 0.00 | 0.00 | 60 | 1009.9 |
| 20260506030346 | 70 | 40 | 1.0 | 6.0 | 0.00 | 0.00 | 0.00 | 60 | 1009.9 |
| 20260506025848 | 70 | 154 | 1.0 | 7.0 | 0.00 | 0.00 | 0.00 | 60 | 1009.9 |
| 20260506025337 | 70 | 153 | 2.0 | 7.0 | 0.00 | 0.00 | 0.00 | 59 | 1009.8 |
| 20260506025050 | 71 | 103 | 1.0 | 7.0 | 0.00 | 0.00 | 0.00 | 58 | 1009.7 |
| 20260506024324 | 71 | 220 | 2.0 | 4.0 | 0.00 | 0.00 | 0.00 | 57 | 1009.8 |
| 20260506023815 | 71 | 130 | 2.0 | 15.0 | 0.00 | 0.00 | 0.00 | 57 | 1009.8 |
| 20260506023309 | 71 | 215 | 1.0 | 15.0 | 0.00 | 0.00 | 0.00 | 56 | 1009.7 |
| 20260506022801 | 72 | 52 | 1.0 | 11.0 | 0.00 | 0.00 | 0.00 | 55 | 1009.7 |
| 20260506022251 | 72 | 132 | 2.0 | 11.0 | 0.00 | 0.00 | 0.00 | 55 | 1009.7 |
| 20260506021745 | 72 | 128 | 3.0 | 12.0 | 0.00 | 0.00 | 0.00 | 54 | 1009.7 |
| 20260506021239 | 72 | 220 | 3.0 | 13.0 | 0.00 | 0.00 | 0.00 | 53 | 1009.7 |
| 20260506020954 | 73 | 24 | 2.0 | 9.0 | 0.00 | 0.00 | 0.00 | 52 | 1009.7 |
| 20260506020449 | 73 | 211 | 2.0 | 9.0 | 0.00 | 0.00 | 0.00 | 52 | 1009.6 |
| 20260506015716 | 73 | 196 | 2.0 | 9.0 | 0.00 | 0.00 | 0.00 | 51 | 1009.7 |
| 20260506015206 | 73 | 292 | 2.0 | 9.0 | 0.00 | 0.00 | 0.00 | 50 | 1009.5 |
| 20260506014700 | 73 | 172 | 2.0 | 8.0 | 0.00 | 0.00 | 0.00 | 49 | 1009.6 |
| 20260506014155 | 73 | 239 | 2.0 | 8.0 | 0.00 | 0.00 | 0.00 | 49 | 1009.4 |
| 20260506013645 | 74 | 80 | 2.0 | 8.0 | 0.00 | 0.00 | 0.00 | 49 | 1009.4 |
| 20260506013139 | 74 | 234 | 2.0 | 7.0 | 0.00 | 0.00 | 0.00 | 48 | 1009.2 |
| 20260506012633 | 74 | 5 | 1.0 | 7.0 | 0.00 | 0.00 | 0.00 | 48 | 1009.2 |
| 20260506012123 | 74 | 169 | 1.0 | 7.0 | 0.00 | 0.00 | 0.00 | 48 | 1009.1 |
| 20260506011617 | 74 | 95 | 2.0 | 7.0 | 0.00 | 0.00 | 0.00 | 48 | 1009.0 |
| 20260506011113 | 74 | 17 | 2.0 | 7.0 | 0.00 | 0.00 | 0.00 | 47 | 1009.0 |
| 20260506010601 | 74 | 231 | 1.0 | 4.0 | 0.00 | 0.00 | 0.00 | 47 | 1008.9 |
| 20260506005548 | 75 | 216 | 2.0 | 13.0 | 0.00 | 0.00 | 0.00 | 47 | 1008.9 |
| 20260506005038 | 75 | 84 | 2.0 | 13.0 | 0.00 | 0.00 | 0.00 | 46 | 1008.9 |
| 20260506004800 | 75 | 60 | 2.0 | 13.0 | 0.00 | 0.00 | 0.00 | 45 | 1008.8 |
| 20260506004248 | 75 | 129 | 2.0 | 13.0 | 0.00 | 0.00 | 0.00 | 45 | 1008.8 |
| 20260506003739 | 75 | 101 | 2.0 | 8.0 | 0.00 | 0.00 | 0.00 | 44 | 1008.7 |
| 20260506003013 | 75 | 98 | 1.0 | 8.0 | 0.00 | 0.00 | 0.00 | 43 | 1008.7 |
| 20260506002505 | 75 | 220 | 1.0 | 8.0 | 0.00 | 0.00 | 0.00 | 43 | 1008.6 |
| 20260506001954 | 75 | 38 | 1.0 | 8.0 | 0.00 | 0.00 | 0.00 | 43 | 1008.5 |
| 20260506001449 | 75 | 210 | 1.0 | 7.0 | 0.00 | 0.00 | 0.00 | 43 | 1008.3 |
| 20260506000951 | 76 | 54 | 1.0 | 4.0 | 0.00 | 0.00 | 0.00 | 41 | 1008.3 |
| 20260506000432 | 76 | 69 | 1.0 | 4.0 | 0.00 | 0.00 | 0.00 | 40 | 1008.4 |
| 20260505235927 | 76 | 96 | 1.0 | 6.0 | 0.00 | 0.00 | 0.00 | 41 | 1008.3 |
| 20260505235420 | 77 | 97 | 1.0 | 6.0 | 0.00 | 0.00 | 0.00 | 39 | 1008.3 |
| 20260505235138 | 77 | 225 | 2.0 | 8.0 | 0.00 | 0.00 | 0.00 | 38 | 1008.3 |
| 20260505234404 | 78 | 62 | 2.0 | 8.0 | 0.00 | 0.00 | 0.00 | 38 | 1008.3 |
| 20260505233859 | 78 | 51 | 2.0 | 8.0 | 0.00 | 0.00 | 0.00 | 38 | 1008.3 |
| 20260505233349 | 78 | 178 | 2.0 | 8.0 | 0.00 | 0.00 | 0.00 | 37 | 1008.2 |
| 20260505233328 | 78 | 66 | 2.0 | 7.0 | 0.00 | 0.00 | 0.00 | 37 | 1008.1 |
| 20260505232336 | 78 | 145 | 2.0 | 7.0 | 0.00 | 0.00 | 0.00 | 37 | 1008.1 |
| 20260505231827 | 78 | 342 | 2.0 | 7.0 | 0.00 | 0.00 | 0.00 | 36 | 1008.1 |
| 20260505231320 | 78 | 150 | 2.0 | 7.0 | 0.00 | 0.00 | 0.00 | 37 | 1008.0 |
| 20260505231035 | 78 | 169 | 2.0 | 10.0 | 0.00 | 0.00 | 0.00 | 36 | 1008.0 |
| 20260505230305 | 79 | 237 | 2.0 | 10.0 | 0.00 | 0.00 | 0.00 | 35 | 1008.0 |
| 20260505225759 | 79 | 40 | 3.0 | 11.0 | 0.00 | 0.00 | 0.00 | 35 | 1007.9 |
| 20260505225254 | 79 | 171 | 2.0 | 11.0 | 0.00 | 0.00 | 0.00 | 34 | 1007.6 |
| 20260505224743 | 80 | 37 | 2.0 | 9.0 | 0.00 | 0.00 | 0.00 | 35 | 1007.8 |
| 20260505224236 | 80 | 178 | 2.0 | 11.0 | 0.00 | 0.00 | 0.00 | 34 | 1007.7 |
| 20260505223732 | 80 | 233 | 2.0 | 11.0 | 0.00 | 0.00 | 0.00 | 34 | 1007.7 |
| 20260505223221 | 80 | 192 | 3.0 | 10.0 | 0.00 | 0.00 | 0.00 | 34 | 1007.6 |
| 20260505222714 | 80 | 205 | 3.0 | 10.0 | 0.00 | 0.00 | 0.00 | 34 | 1007.6 |
| 20260505222211 | 80 | 158 | 3.0 | 11.0 | 0.00 | 0.00 | 0.00 | 33 | 1007.6 |
| 20260505221659 | 80 | 39 | 3.0 | 11.0 | 0.00 | 0.00 | 0.00 | 33 | 1007.6 |
| 20260505221153 | 81 | 48 | 3.0 | 11.0 | 0.00 | 0.00 | 0.00 | 33 | 1007.5 |
| 20260505220652 | 80 | 282 | 3.0 | 11.0 | 0.00 | 0.00 | 0.00 | 33 | 1007.4 |
| 20260505220149 | 81 | 211 | 3.0 | 8.0 | 0.00 | 0.00 | 0.00 | 34 | 1007.5 |
| 20260505215649 | 81 | 35 | 3.0 | 8.0 | 0.00 | 0.00 | 0.00 | 34 | 1007.5 |
| 20260505215149 | 81 | 88 | 3.0 | 10.0 | 0.00 | 0.00 | 0.00 | 35 | 1007.3 |
| 20260505214646 | 80 | 147 | 3.0 | 10.0 | 0.00 | 0.00 | 0.00 | 34 | 1007.2 |
| 20260505214411 | 80 | 61 | 3.0 | 10.0 | 0.00 | 0.00 | 0.00 | 34 | 1007.2 |
| 20260505213909 | 81 | 53 | 3.0 | 12.0 | 0.00 | 0.00 | 0.00 | 34 | 1007.3 |
| 20260505213147 | 81 | 105 | 3.0 | 12.0 | 0.00 | 0.00 | 0.00 | 35 | 1007.3 |
| 20260505212646 | 81 | 161 | 3.0 | 13.0 | 0.00 | 0.00 | 0.00 | 35 | 1007.0 |
| 20260505212146 | 81 | 42 | 4.0 | 14.0 | 0.00 | 0.00 | 0.00 | 35 | 1006.8 |
| 20260505211646 | 81 | 326 | 4.0 | 14.0 | 0.00 | 0.00 | 0.00 | 35 | 1006.7 |
| 20260505211405 | 81 | 237 | 4.0 | 12.0 | 0.00 | 0.00 | 0.00 | 33 | 1007.0 |
| 20260505210649 | 82 | 182 | 4.0 | 11.0 | 0.00 | 0.00 | 0.00 | 32 | 1007.1 |
| 20260505210201 | 82 | 34 | 4.0 | 16.0 | 0.00 | 0.00 | 0.00 | 33 | 1007.0 |
| 20260505205643 | 82 | 57 | 5.0 | 16.0 | 0.00 | 0.00 | 0.00 | 33 | 1006.9 |
| 20260505205146 | 82 | 217 | 4.0 | 15.0 | 0.00 | 0.00 | 0.00 | 33 | 1006.8 |
| 20260505204644 | 82 | 62 | 3.0 | 15.0 | 0.00 | 0.00 | 0.00 | 33 | 1007.0 |
| 20260505204145 | 82 | 179 | 4.0 | 15.0 | 0.00 | 0.00 | 0.00 | 34 | 1007.1 |
| 20260505203646 | 81 | 57 | 3.0 | 15.0 | 0.00 | 0.00 | 0.00 | 34 | 1007.1 |
| 20260505203143 | 81 | 58 | 3.0 | 13.0 | 0.00 | 0.00 | 0.00 | 36 | 1007.1 |
| 20260505202641 | 81 | 66 | 4.0 | 18.0 | 0.00 | 0.00 | 0.00 | 34 | 1007.0 |
| 20260505202405 | 82 | 24 | 4.0 | 18.0 | 0.00 | 0.00 | 0.00 | 36 | 1007.1 |
| 20260505201640 | 82 | 217 | 4.0 | 18.0 | 0.00 | 0.00 | 0.00 | 35 | 1007.1 |
| 20260505201140 | 82 | 80 | 4.0 | 18.0 | 0.00 | 0.00 | 0.00 | 33 | 1007.3 |
| 20260505200640 | 82 | 247 | 4.0 | 13.0 | 0.00 | 0.00 | 0.00 | 34 | 1007.2 |
| 20260505200143 | 82 | 242 | 4.0 | 13.0 | 0.00 | 0.00 | 0.00 | 36 | 1007.1 |
| 20260505195640 | 82 | 346 | 3.0 | 13.0 | 0.00 | 0.00 | 0.00 | 36 | 1007.2 |
| 20260505195403 | 83 | 52 | 3.0 | 18.0 | 0.00 | 0.00 | 0.00 | 34 | 1007.3 |
| 20260505194641 | 83 | 182 | 2.0 | 18.0 | 0.00 | 0.00 | 0.00 | 35 | 1007.2 |
| 20260505194627 | 83 | 182 | 3.0 | 18.0 | 0.00 | 0.00 | 0.00 | 36 | 1007.3 |
| 20260505193640 | 83 | 0 | 3.0 | 18.0 | 0.00 | 0.00 | 0.00 | 34 | 1007.3 |
| 20260505193400 | 83 | 51 | 3.0 | 19.0 | 0.00 | 0.00 | 0.00 | 34 | 1007.4 |
| 20260505192640 | 83 | 82 | 4.0 | 19.0 | 0.00 | 0.00 | 0.00 | 36 | 1007.6 |
| 20260505192141 | 83 | 242 | 4.0 | 19.0 | 0.00 | 0.00 | 0.00 | 35 | 1007.7 |
| 20260505191640 | 83 | 286 | 4.0 | 19.0 | 0.00 | 0.00 | 0.00 | 36 | 1007.7 |
| 20260505191406 | 83 | 56 | 4.0 | 11.0 | 0.00 | 0.00 | 0.00 | 35 | 1007.7 |
| 20260505190640 | 83 | 192 | 5.0 | 11.0 | 0.00 | 0.00 | 0.00 | 34 | 1007.8 |
| 20260505190141 | 83 | 275 | 5.0 | 19.0 | 0.00 | 0.00 | 0.00 | 37 | 1007.8 |
| 20260505185640 | 83 | 344 | 4.0 | 19.0 | 0.00 | 0.00 | 0.00 | 35 | 1007.9 |
| 20260505185141 | 83 | 46 | 4.0 | 19.0 | 0.00 | 0.00 | 0.00 | 37 | 1007.9 |
| 20260505184910 | 84 | 144 | 3.0 | 19.0 | 0.00 | 0.00 | 0.00 | 36 | 1008.1 |
| 20260505184140 | 83 | 88 | 3.0 | 12.0 | 0.00 | 0.00 | 0.00 | 36 | 1008.1 |
| 20260505183640 | 83 | 90 | 3.0 | 10.0 | 0.00 | 0.00 | 0.00 | 38 | 1008.2 |
| 20260505183141 | 83 | 114 | 2.0 | 9.0 | 0.00 | 0.00 | 0.00 | 38 | 1008.4 |
| 20260505182641 | 83 | 188 | 3.0 | 7.0 | 0.00 | 0.00 | 0.00 | 40 | 1008.3 |
| 20260505182141 | 83 | 94 | 3.0 | 9.0 | 0.00 | 0.00 | 0.00 | 38 | 1008.4 |
| 20260505181902 | 83 | 5 | 3.0 | 10.0 | 0.00 | 0.00 | 0.00 | 41 | 1008.3 |
| 20260505181140 | 83 | 28 | 3.0 | 10.0 | 0.00 | 0.00 | 0.00 | 36 | 1008.4 |
| 20260505180641 | 83 | 194 | 3.0 | 9.0 | 0.00 | 0.00 | 0.00 | 41 | 1008.5 |
| 20260505180140 | 82 | 250 | 3.0 | 11.0 | 0.00 | 0.00 | 0.00 | 42 | 1008.6 |
| 20260505175638 | 83 | 211 | 3.0 | 11.0 | 0.00 | 0.00 | 0.00 | 43 | 1008.6 |
| 20260505175138 | 83 | 90 | 3.0 | 8.0 | 0.00 | 0.00 | 0.00 | 40 | 1008.7 |
| 20260505174906 | 83 | 32 | 3.0 | 8.0 | 0.00 | 0.00 | 0.00 | 43 | 1008.6 |
| 20260505174138 | 83 | 213 | 2.0 | 8.0 | 0.00 | 0.00 | 0.00 | 41 | 1008.7 |
| 20260505173639 | 83 | 215 | 2.0 | 8.0 | 0.00 | 0.00 | 0.00 | 43 | 1008.8 |
| 20260505173139 | 83 | 251 | 2.0 | 8.0 | 0.00 | 0.00 | 0.00 | 44 | 1008.9 |
| 20260505172858 | 83 | 220 | 2.0 | 7.0 | 0.00 | 0.00 | 0.00 | 43 | 1008.9 |
| 20260505172137 | 83 | 128 | 2.0 | 7.0 | 0.00 | 0.00 | 0.00 | 41 | 1009.0 |
| 20260505171906 | 83 | 60 | 2.0 | 7.0 | 0.00 | 0.00 | 0.00 | 44 | 1009.0 |
| 20260505171134 | 83 | 198 | 2.0 | 14.0 | 0.00 | 0.00 | 0.00 | 45 | 1009.0 |
| 20260505170628 | 82 | 5 | 2.0 | 14.0 | 0.00 | 0.00 | 0.00 | 45 | 1009.0 |
| 20260505170119 | 82 | 38 | 2.0 | 14.0 | 0.00 | 0.00 | 0.00 | 46 | 1009.0 |
| 20260505165612 | 82 | 229 | 2.0 | 14.0 | 0.00 | 0.00 | 0.00 | 44 | 1009.1 |
| 20260505165113 | 82 | 202 | 2.0 | 10.0 | 0.00 | 0.00 | 0.00 | 45 | 1009.3 |
| 20260505164834 | 81 | 38 | 2.0 | 9.0 | 0.00 | 0.00 | 0.00 | 45 | 1009.4 |
| 20260505164112 | 81 | 271 | 2.0 | 7.0 | 0.00 | 0.00 | 0.00 | 45 | 1009.5 |
| 20260505163608 | 81 | 169 | 3.0 | 11.0 | 0.00 | 0.00 | 0.00 | 45 | 1009.5 |
| 20260505163342 | 81 | 58 | 2.0 | 11.0 | 0.00 | 0.00 | 0.00 | 51 | 1009.6 |
| 20260505162608 | 80 | 56 | 2.0 | 11.0 | 0.00 | 0.00 | 0.00 | 46 | 1009.6 |
| 20260505162107 | 80 | 237 | 2.0 | 11.0 | 0.00 | 0.00 | 0.00 | 47 | 1009.7 |
| 20260505161604 | 80 | 53 | 3.0 | 9.0 | 0.00 | 0.00 | 0.00 | 47 | 1009.7 |
| 20260505161118 | 80 | 132 | 2.0 | 9.0 | 0.00 | 0.00 | 0.00 | 46 | 1009.7 |
| 20260505160605 | 80 | 209 | 2.0 | 8.0 | 0.00 | 0.00 | 0.00 | 47 | 1009.7 |
| 20260505160338 | 79 | 339 | 2.0 | 8.0 | 0.00 | 0.00 | 0.00 | 47 | 1009.8 |
| 20260505153046 | 77 | 142 | 2.0 | 8.0 | 0.00 | 0.00 | 0.00 | 50 | 1010.2 |
| 20260505152538 | 77 | 71 | 2.0 | 8.0 | 0.00 | 0.00 | 0.00 | 53 | 1010.2 |
| 20260505152027 | 77 | 108 | 2.0 | 8.0 | 0.00 | 0.00 | 0.00 | 51 | 1010.2 |
| 20260505151533 | 76 | 298 | 2.0 | 8.0 | 0.00 | 0.00 | 0.00 | 54 | 1010.3 |
| 20260505151014 | 76 | 66 | 2.0 | 6.0 | 0.00 | 0.00 | 0.00 | 54 | 1010.2 |
| 20260505150504 | 76 | 210 | 2.0 | 9.0 | 0.00 | 0.00 | 0.00 | 52 | 1010.2 |
| 20260505150439 | 75 | 96 | 2.0 | 9.0 | 0.00 | 0.00 | 0.00 | 53 | 1010.2 |
| 20260505140336 | 73 | 321 | 2.0 | 9.0 | 0.00 | 0.00 | 0.00 | 56 | 1010.8 |
| 20260505130208 | 68 | 134 | 1.0 | 5.0 | 0.00 | 0.00 | 0.00 | 67 | 1010.7 |
| 20260505124646 | 67 | 164 | 1.0 | 4.0 | 0.00 | 0.00 | 0.00 | 70 | 1010.3 |
| 20260505124140 | 66 | 78 | 1.0 | 3.0 | 0.00 | 0.00 | 0.00 | 70 | 1010.3 |
| 20260505123634 | 65 | 167 | 1.0 | 3.0 | 0.00 | 0.00 | 0.00 | 73 | 1010.3 |
| 20260505123351 | 64 | 168 | 0.0 | 4.0 | 0.00 | 0.00 | 0.00 | 74 | 1010.2 |
| 20260505123059 | 64 | 158 | 0.0 | 2.0 | 0.00 | 0.00 | 0.00 | 75 | 1010.5 |
| 20260505122112 | 62 | 198 | 0.0 | 3.0 | 0.00 | 0.00 | 0.00 | 77 | 1010.5 |
| 20260505121602 | 61 | 194 | 0.0 | 3.0 | 0.00 | 0.00 | 0.00 | 79 | 1010.4 |
| 20260505121056 | 60 | 180 | 0.0 | 3.0 | 0.00 | 0.00 | 0.00 | 81 | 1010.5 |
| 20260505120550 | 59 | 175 | 0.0 | 3.0 | 0.00 | 0.00 | 0.00 | 82 | 1010.7 |
| 20260505120258 | 58 | 175 | 0.0 | 3.0 | 0.00 | 0.00 | 0.00 | 84 | 1010.7 |
| 20260505115547 | 57 | 240 | 0.0 | 3.0 | 0.00 | 0.00 | 0.00 | 85 | 1010.7 |
| 20260505115026 | 57 | 259 | 0.0 | 2.0 | 0.00 | 0.00 | 0.00 | 86 | 1010.7 |
| 20260505114526 | 56 | 261 | 0.0 | 4.0 | 0.00 | 0.00 | 0.00 | 85 | 1010.7 |
| 20260505114029 | 56 | 260 | 1.0 | 4.0 | 0.00 | 0.00 | 0.00 | 86 | 1010.7 |
| 20260505113753 | 56 | 262 | 1.0 | 4.0 | 0.00 | 0.00 | 0.00 | 86 | 1010.6 |
| 20260505113027 | 55 | 42 | 0.0 | 4.0 | 0.00 | 0.00 | 0.00 | 86 | 1010.6 |
| 20260505112526 | 55 | 140 | 0.0 | 1.0 | 0.00 | 0.00 | 0.00 | 87 | 1010.6 |
| 20260505112024 | 55 | 193 | 0.0 | 2.0 | 0.00 | 0.00 | 0.00 | 88 | 1010.4 |
| 20260505111535 | 55 | 193 | 0.0 | 2.0 | 0.00 | 0.00 | 0.00 | 88 | 1010.4 |
| 20260505111021 | 54 | 193 | 0.0 | 2.0 | 0.00 | 0.00 | 0.00 | 88 | 1010.3 |
| 20260505110532 | 54 | 193 | 0.0 | 2.0 | 0.00 | 0.00 | 0.00 | 89 | 1010.2 |
| 20260505102001 | 51 | 193 | 0.0 | 0.0 | 0.00 | 0.00 | 0.00 | 89 | 1010.5 |
| 20260505101459 | 50 | 194 | 0.0 | 0.0 | 0.00 | 0.00 | 0.00 | 89 | 1010.6 |
| 20260505100959 | 50 | 194 | 0.0 | 0.0 | 0.00 | 0.00 | 0.00 | 89 | 1010.3 |
| 20260505100719 | 50 | 194 | 0.0 | 0.0 | 0.00 | 0.00 | 0.00 | 89 | 1010.2 |
| 20260505100220 | 49 | 194 | 0.0 | 0.0 | 0.00 | 0.00 | 0.00 | 89 | 1010.1 |
| 20260505095456 | 49 | 194 | 0.0 | 0.0 | 0.00 | 0.00 | 0.00 | 88 | 1010.2 |
| 20260505094956 | 49 | 194 | 0.0 | 0.0 | 0.00 | 0.00 | 0.00 | 87 | 1010.1 |
| 20260505094507 | 49 | 194 | 0.0 | 0.0 | 0.00 | 0.00 | 0.00 | 87 | 1010.1 |
| 20260505093951 | 49 | 194 | 0.0 | 0.0 | 0.00 | 0.00 | 0.00 | 87 | 1010.0 |
| 20260505093450 | 49 | 194 | 0.0 | 0.0 | 0.00 | 0.00 | 0.00 | 86 | 1010.1 |
| 20260505092948 | 49 | 194 | 0.0 | 0.0 | 0.00 | 0.00 | 0.00 | 85 | 1010.0 |
| 20260505092446 | 50 | 194 | 0.0 | 0.0 | 0.00 | 0.00 | 0.00 | 85 | 1009.8 |
| 20260505091945 | 50 | 194 | 0.0 | 0.0 | 0.00 | 0.00 | 0.00 | 85 | 1009.9 |
| 20260505091443 | 50 | 194 | 0.0 | 0.0 | 0.00 | 0.00 | 0.00 | 86 | 1009.8 |
| 20260505090944 | 50 | 194 | 0.0 | 0.0 | 0.00 | 0.00 | 0.00 | 86 | 1009.8 |
| 20260505090445 | 51 | 194 | 0.0 | 0.0 | 0.00 | 0.00 | 0.00 | 86 | 1009.7 |
| 20260505085939 | 50 | 194 | 0.0 | 0.0 | 0.00 | 0.00 | 0.00 | 86 | 1009.7 |
| 20260505085435 | 50 | 194 | 0.0 | 0.0 | 0.00 | 0.00 | 0.00 | 86 | 1009.6 |
| 20260505085157 | 50 | 194 | 0.0 | 0.0 | 0.00 | 0.00 | 0.00 | 86 | 1009.6 |
| 20260505084433 | 50 | 194 | 0.0 | 0.0 | 0.00 | 0.00 | 0.00 | 86 | 1009.6 |
| 20260505083931 | 50 | 194 | 0.0 | 0.0 | 0.00 | 0.00 | 0.00 | 86 | 1009.7 |
| 20260505083429 | 50 | 194 | 0.0 | 0.0 | 0.00 | 0.00 | 0.00 | 86 | 1009.8 |
| 20260505082928 | 50 | 194 | 0.0 | 0.0 | 0.00 | 0.00 | 0.00 | 86 | 1009.8 |
| 20260505082425 | 50 | 194 | 0.0 | 0.0 | 0.00 | 0.00 | 0.00 | 85 | 1009.7 |
| 20260505081932 | 50 | 194 | 0.0 | 0.0 | 0.00 | 0.00 | 0.00 | 82 | 1009.7 |
| 20260505081927 | 50 | 194 | 0.0 | 0.0 | 0.00 | 0.00 | 0.00 | 84 | 1009.7 |
| 20260505080925 | 51 | 194 | 0.0 | 0.0 | 0.00 | 0.00 | 0.00 | 82 | 1009.7 |
| 20260505080425 | 51 | 194 | 0.0 | 0.0 | 0.00 | 0.00 | 0.00 | 82 | 1009.7 |
| 20260505075926 | 51 | 194 | 0.0 | 0.0 | 0.00 | 0.00 | 0.00 | 82 | 1009.7 |
| 20260505075426 | 52 | 194 | 0.0 | 0.0 | 0.00 | 0.00 | 0.00 | 82 | 1009.7 |
| 20260505074926 | 52 | 194 | 0.0 | 0.0 | 0.00 | 0.00 | 0.00 | 82 | 1009.7 |
| 20260505074426 | 52 | 194 | 0.0 | 0.0 | 0.00 | 0.00 | 0.00 | 83 | 1009.7 |
| 20260505073925 | 52 | 194 | 0.0 | 0.0 | 0.00 | 0.00 | 0.00 | 83 | 1009.7 |
| 20260505073425 | 52 | 194 | 0.0 | 0.0 | 0.00 | 0.00 | 0.00 | 83 | 1009.7 |
| 20260505072925 | 51 | 194 | 0.0 | 0.0 | 0.00 | 0.00 | 0.00 | 83 | 1009.6 |
| 20260505072425 | 51 | 194 | 0.0 | 0.0 | 0.00 | 0.00 | 0.00 | 83 | 1009.6 |
| 20260505071927 | 51 | 194 | 0.0 | 0.0 | 0.00 | 0.00 | 0.00 | 83 | 1009.6 |
| 20260505071423 | 51 | 194 | 0.0 | 0.0 | 0.00 | 0.00 | 0.00 | 83 | 1009.7 |
| 20260505070922 | 51 | 194 | 0.0 | 0.0 | 0.00 | 0.00 | 0.00 | 83 | 1009.6 |